Linden, NJ

1:08 PM EST on December 09, 2016 (GMT -0500)
Linden

Weather History for KLDJ - December, 2013

Change the Weather History Date:

Thursday, December 12, 2013

  Actual Average (KEWR) Record (KEWR)
Temperature  
Mean Temperature 26 °F -  
Max Temperature 29 °F 44 °F 68 °F (1931)
Min Temperature 23 °F 30 °F 6 °F (1988)
Degree Days  
Heating Degree Days 39    
Moisture  
Dew Point 9 °F    
Average Humidity 48    
Maximum Humidity 64    
Minimum Humidity 36    
Precipitation  
Precipitation 0.00 in - - ()
Sea Level Pressure  
Sea Level Pressure 30.31 in    
Wind  
Wind Speed 8 mph (WNW)    
Max Wind Speed 15 mph    
Max Gust Speed 20 mph    
Visibility 10 miles    
Events      
Averages and records for this station are not official NWS values.
T = Trace of Precipitation, MM = Missing Value Source: NWS Daily Summary

Daily Weather History Graph

Daily Weather History Graph

Search for Another Location

Airport or City:

Trip Planner

Search our weather history database for the weather conditions in past years. The results will help you decide how hot, cold, wet, or windy it might be!

Date:

Astronomy

Dec. 12, 2013 Rise Set
Actual Time 7:11 AM EST 4:30 PM EST
Civil Twilight 6:40 AM EST 5:00 PM EST
Nautical Twilight 6:06 AM EST 5:35 PM EST
Astronomical Twilight 5:33 AM EST 6:08 PM EST
Moon 1:36 PM EST (12/12) 2:30 AM EST (12/12)
Length of Visible Light 10h 20m
Length of Day
9h 18m
Waxing Gibbous, 80% of the Moon is Illuminated
Dec 12
Waxing Gibbous
Dec 17
Full
Dec 25
Last Quarter
Jan 1
New
Jan 7
First Quarter

Hourly Weather History & Observations

Time (EST) Temp. Windchill Dew Point Humidity Pressure Visibility Wind Dir Wind Speed Gust Speed Precip Events Conditions
12:15 AM 29.1 °F 21.3 °F 16.7 °F 60% 30.26 in 10.0 mi NW 8.1 mph - N/A   Clear
12:35 AM 28.2 °F 23.1 °F 16.5 °F 62% 30.26 in 10.0 mi WNW 4.6 mph - N/A   Clear
12:55 AM 27.0 °F 20.5 °F 16.3 °F 64% 30.26 in 10.0 mi NW 5.8 mph - N/A   Clear
1:15 AM 26.6 °F 20.0 °F 16.0 °F 64% 30.26 in 10.0 mi NW 5.8 mph - N/A   Clear
1:35 AM 27.7 °F 19.6 °F 16.3 °F 62% 30.27 in 10.0 mi WNW 8.1 mph - N/A   Clear
1:55 AM 27.1 °F 20.7 °F 16.2 °F 63% 30.27 in 10.0 mi NW 5.8 mph - N/A   Clear
2:15 AM 27.5 °F 23.6 °F 15.8 °F 61% 30.28 in 10.0 mi WNW 3.5 mph - N/A   Clear
2:35 AM 27.5 °F 23.6 °F 15.8 °F 61% 30.29 in 10.0 mi West 3.5 mph - N/A   Clear
2:55 AM 27.7 °F 22.4 °F 16.5 °F 63% 30.29 in 10.0 mi WNW 4.6 mph - N/A   Mostly Cloudy
3:15 AM 27.5 °F 20.2 °F 16.3 °F 63% 30.29 in 10.0 mi NW 6.9 mph - N/A   Mostly Cloudy
3:35 AM 27.1 °F 19.7 °F 16.2 °F 63% 30.29 in 10.0 mi NW 6.9 mph - N/A   Clear
3:55 AM 27.1 °F 18.9 °F 15.8 °F 62% 30.30 in 10.0 mi NW 8.1 mph - N/A   Scattered Clouds
4:15 AM 27.1 °F 15.4 °F 15.8 °F 62% 30.30 in 10.0 mi North 15.0 mph 18.4 mph N/A   Clear
4:35 AM 26.2 °F 17.8 °F 14.2 °F 60% 30.31 in 10.0 mi NW 8.1 mph - N/A   Clear
4:55 AM 26.1 °F 15.6 °F 12.2 °F 56% 30.32 in 10.0 mi NNW 11.5 mph 18.4 mph N/A   Clear
5:15 AM 25.5 °F 16.2 °F 11.8 °F 56% 30.32 in 10.0 mi NNW 9.2 mph - N/A   Clear
5:35 AM 25.3 °F 16.7 °F 11.3 °F 55% 30.33 in 10.0 mi NNW 8.1 mph - N/A   Clear
5:55 AM 24.8 °F 15.3 °F 10.8 °F 55% 30.33 in 10.0 mi NNW 9.2 mph - N/A   Clear
6:15 AM 24.4 °F 14.9 °F 9.7 °F 53% 30.33 in 10.0 mi NNW 9.2 mph 18.4 mph N/A   Clear
6:35 AM 24.6 °F 15.1 °F 7.7 °F 49% 30.34 in 10.0 mi NNW 9.2 mph 19.6 mph N/A   Clear
6:55 AM 24.3 °F 13.9 °F 7.7 °F 49% 30.35 in 10.0 mi NNW 10.4 mph - N/A   Clear
7:15 AM 23.9 °F 15.0 °F 7.7 °F 50% 30.35 in 10.0 mi NW 8.1 mph - N/A   Clear
7:35 AM 23.4 °F 13.5 °F 8.6 °F 53% 30.35 in 10.0 mi NW 9.2 mph - N/A   Clear
7:55 AM 23.9 °F 12.3 °F 8.6 °F 52% 30.37 in 10.0 mi NW 12.7 mph 17.3 mph N/A   Clear
8:15 AM 24.4 °F 13.0 °F 7.0 °F 48% 30.37 in 10.0 mi NW 12.7 mph - N/A   Clear
8:35 AM 24.6 °F 15.8 °F 5.7 °F 45% 30.38 in 10.0 mi NNW 8.1 mph - N/A   Clear
8:55 AM 24.6 °F 12.7 °F 5.4 °F 44% 30.39 in 10.0 mi NNW 13.8 mph 19.6 mph N/A   Clear
9:15 AM 24.4 °F 11.9 °F 5.4 °F 44% 30.39 in 10.0 mi NNW 15.0 mph 18.4 mph N/A   Clear
9:35 AM 24.8 °F 13.4 °F 5.5 °F 44% 30.39 in 10.0 mi NNW 12.7 mph 18.4 mph N/A   Clear
9:55 AM 24.8 °F 15.3 °F 6.3 °F 45% 30.40 in 10.0 mi NW 9.2 mph - N/A   Clear
10:15 AM 25.5 °F 14.9 °F 6.8 °F 45% 30.39 in 10.0 mi NW 11.5 mph 17.3 mph N/A   Clear
10:35 AM 25.9 °F 14.3 °F 6.8 °F 44% 30.39 in 10.0 mi NW 13.8 mph 19.6 mph N/A   Clear
10:55 AM 26.6 °F 16.2 °F 7.7 °F 45% 30.38 in 10.0 mi NNW 11.5 mph - N/A   Clear
11:15 AM 27.0 °F 17.3 °F 5.7 °F 41% 30.37 in 10.0 mi NNW 10.4 mph - N/A   Clear
11:35 AM 27.1 °F 16.9 °F 5.9 °F 41% 30.34 in 10.0 mi NNW 11.5 mph - N/A   Clear
11:55 AM 28.0 °F 19.3 °F 5.4 °F 38% 30.34 in 10.0 mi NNE 9.2 mph - N/A   Clear
12:15 PM 28.4 °F 19.1 °F 4.6 °F 36% 30.32 in 10.0 mi North 10.4 mph 16.1 mph N/A   Clear
12:35 PM 28.4 °F 19.1 °F 4.5 °F 36% 30.31 in 10.0 mi North 10.4 mph - N/A   Clear
12:55 PM 29.1 °F 22.1 °F 5.7 °F 37% 30.31 in 10.0 mi NW 6.9 mph - N/A   Clear
1:15 PM 28.4 °F 19.7 °F 5.2 °F 37% 30.31 in 10.0 mi NW 9.2 mph - N/A   Clear
1:35 PM 28.9 °F 19.8 °F 5.7 °F 37% 30.30 in 10.0 mi NW 10.4 mph - N/A   Clear
1:55 PM 28.8 °F 20.9 °F 5.5 °F 37% 30.30 in 10.0 mi WNW 8.1 mph - N/A   Clear
2:15 PM 28.9 °F 21.9 °F 5.4 °F 37% 30.29 in 10.0 mi NW 6.9 mph - N/A   Clear
2:35 PM 29.3 °F 20.2 °F 6.4 °F 38% 30.29 in 10.0 mi West 10.4 mph - N/A   Clear
2:55 PM 28.9 °F 21.1 °F 7.7 °F 41% 30.29 in 10.0 mi WNW 8.1 mph - N/A   Clear
3:15 PM 28.6 °F 21.5 °F 7.7 °F 41% 30.29 in 10.0 mi NW 6.9 mph - N/A   Clear
3:35 PM 28.4 °F 22.2 °F 6.3 °F 39% 30.29 in 10.0 mi WNW 5.8 mph - N/A   Clear
3:55 PM 28.0 °F 19.3 °F 6.3 °F 40% 30.29 in 10.0 mi West 9.2 mph - N/A   Clear
4:15 PM 28.0 °F 19.3 °F 6.6 °F 40% 30.29 in 10.0 mi West 9.2 mph - N/A   Clear
4:35 PM 27.5 °F 22.2 °F 6.4 °F 41% 30.29 in 10.0 mi West 4.6 mph - N/A   Clear
4:55 PM 27.5 °F 20.2 °F 5.7 °F 40% 30.29 in 10.0 mi West 6.9 mph - N/A   Clear
5:15 PM 27.0 °F 20.5 °F 4.6 °F 39% 30.29 in 10.0 mi West 5.8 mph - N/A   Clear
5:35 PM 27.0 °F 21.6 °F 4.8 °F 39% 30.29 in 10.0 mi West 4.6 mph - N/A   Clear
5:55 PM 26.4 °F 19.8 °F 5.4 °F 41% 30.29 in 10.0 mi West 5.8 mph - N/A   Clear
6:15 PM 26.1 °F 19.4 °F 6.4 °F 43% 30.30 in 10.0 mi West 5.8 mph - N/A   Clear
6:35 PM 25.7 °F 19.0 °F 6.8 °F 45% 30.30 in 10.0 mi West 5.8 mph - N/A   Clear
6:55 PM 25.7 °F 17.1 °F 7.0 °F 45% 30.30 in 10.0 mi West 8.1 mph - N/A   Clear
7:15 PM 25.5 °F 18.7 °F 6.8 °F 45% 30.30 in 10.0 mi West 5.8 mph - N/A   Clear
7:35 PM 25.3 °F 16.0 °F 6.8 °F 45% 30.30 in 10.0 mi West 9.2 mph - N/A   Clear
7:55 PM 24.8 °F 17.9 °F 6.6 °F 46% 30.30 in 10.0 mi West 5.8 mph - N/A   Clear
8:15 PM 24.8 °F 16.1 °F 6.6 °F 46% 30.29 in 10.0 mi West 8.1 mph - N/A   Clear
8:35 PM 24.4 °F 15.6 °F 7.3 °F 48% 30.28 in 10.0 mi West 8.1 mph - N/A   Clear
8:55 PM 24.4 °F 17.5 °F 7.3 °F 48% 30.28 in 10.0 mi West 5.8 mph - N/A   Clear
9:15 PM 23.9 °F 16.8 °F 7.3 °F 49% 30.27 in 10.0 mi West 5.8 mph - N/A   Clear
9:35 PM 23.9 °F 15.0 °F 7.5 °F 50% 30.26 in 10.0 mi West 8.1 mph - N/A   Clear
9:55 PM 23.7 °F 14.7 °F 7.2 °F 49% 30.25 in 10.0 mi West 8.1 mph - N/A   Clear
10:15 PM 23.7 °F 14.7 °F 6.8 °F 49% 30.25 in 10.0 mi West 8.1 mph - N/A   Clear
10:35 PM 23.5 °F 15.4 °F 6.8 °F 49% 30.24 in 10.0 mi West 6.9 mph - N/A   Clear
10:55 PM 23.5 °F 15.4 °F 7.5 °F 50% 30.23 in 10.0 mi West 6.9 mph - N/A   Mostly Cloudy
11:15 PM 23.5 °F 13.7 °F 7.7 °F 51% 30.23 in 10.0 mi West 9.2 mph - N/A   Overcast
11:35 PM 23.4 °F 15.2 °F 7.3 °F 50% 30.22 in 10.0 mi West 6.9 mph - N/A   Scattered Clouds
11:55 PM 23.0 °F 13.9 °F 7.5 °F 52% 30.21 in 10.0 mi West 8.1 mph - N/A   Mostly Cloudy